sat.trackr.live / text

‹ back to catalog

HMU-SAT2

NORAD 67688 · 1998-067YE

PAYLOAD ACTIVE UNKNOWN

§ Identity

Operator
Country
JPN
Launch date
1998-11-20
Launch site
TYMSC
Launch vehicle
Mass (kg)
RCS (m²)

Purposes: station

External: N2YO · Heavens-Above · Gunter

§ Orbital elements

Epoch: 2026-05-24T23:57:32.236992Z

Period
92.30 min
Inclination
51.6294°
Eccentricity
0.0009764
Mean motion
15.60112167 rev/d
Perigee alt
380.7 km
Apogee alt
393.9 km
Semi-major
6,765.5 km
B*
6.8185e-4
RAAN
49.9725°
Arg perigee
98.1989°
Mean anomaly
262.0112°
Rev number
1,659

§ Raw data

HMU-SAT21 67688U 98067YE  26144.99828978  .00056437  00000+0  68185-3 0  99972 67688  51.6294  49.9725 0009764  98.1989 262.0112 15.60112167 16595

JSON: /api/v1/satellites/67688 · /tle

For live sub-satellite position, see the globe view (requires WebGL).

§ Visibility from observer

Set your observer location to see the next 7 days of passes ≥ 10°. The values pass through the URL so the page stays shareable.

No JS? Fill the form by hand. The geolocation button needs JavaScript.